STARLINK-5691, 55478

Orbit data source: Space-Track

STARLINK-5691, 55478 is a payload satellite owned by SpaceX/Seattle (US) in LEO that was launched on Thu, 02 Feb 2023 UTC via an FALCON 9 launch vehicle from the Air Force Eastern Test Range (AFETR). Payload-class satellites include a variety of spacecraft equipped with specific instruments for various scientific and technological missions. These include communications satellites like Starlink; space stations such as the ISS; scientific satellites like the Hubble; Earth observation satellites from companies like Planet Labs, Umbra, and HawkEye 360; GPS; miniature CubeSats for education and research; and military/defense satellites.

Loading next visibility...
Identifier
55478, 2023-015AF
Orbit
LEO
Country
Flag of USUS
Related business
Manufacturer
SpaceX/Seattle
Mission
Operational Commercial Communications
Bus & Motor
STARLINK, Unknown motor
Mass
305 kg wet, ~290 kg dry
Launch date (UTC)
2023-02-02 (3 years ago)
Launch vehicle
FALCON 9
Launch site
Air Force Eastern Test Range (AFETR)
Object type
Payload
Rocket body
Debris
Shape & HBR
Box + 1 Pan, 10.1 m
Radar Cross Section
13.562 m², Large (>1 m²)

Expand to show TLE details & history
Last TLE update: 16 hours ago

TLE from 16 hours ago
0 STARLINK-5691
1 55478U 23015AF  25303.03129341 -.00000404  00000-0 -14878-4 0  9998
2 55478  43.0037 303.4498 0000863 260.9781  99.0963 15.02537429151246
Epoch: 2025-10-30T00:45Z
TLE epoch observation values (Epoch: 2025-10-30T00:45:03.750Z)
Latitude
-0.00007°
Longitude
-106.41182°
Altitude
558.948 km
Speed
7.584 km/s
True Right ascension
20h 13m 47s
True Declination
0° 00' 00"
Sunlit
Object was in daylight at epoch
Visualization orbit readout
Latitude
Unknown
Longitude
Unknown
Altitude
Unknown
Speed
Unknown
Apparent Right ascension
Unknown
Apparent Declination
Unknown
Sunlit
N/A
Visualization observer readout
Local Sidereal Time
12:07:07
Azimuth
Unknown
Elevation
Unknown
Doppler factor
Unknown
Orbital elements
Apogee altitude
561.597 km
Perigee altitude
560.4 km
Semi-major axis
6,939.135 km
Eccentricity
0.00009
Inclination
43.0037°
RAAN
303.4498°
Arg. of periapsis
260.9781°
True anomaly
99.10606°
Mean anomaly
99.0963°
Eccentric anomaly
99.10118°
Mean motion
3.75479 °/min
Orbital period
95.88 mins
BSTAR
-0.000014878
Loading maneuver chart data...
Computing Atmospheric mass density...
Loading historical data...
Loading historical data...
Loading historical data...
Loading historical data...
Loading historical data...
Loading historical data...
Loading historical data...

Documentation

Showing up to 5 results
|